{"data":{"norad_id":53898,"epoch":"2026-05-24T23:10:37.659360Z","epoch_age_seconds":81443,"freshness":"FRESH","line1":"1 53898U 22119N   26144.96571365  .00003240  00000+0  22164-3 0  9993","line2":"2 53898  53.2130 341.4237 0001559  90.7091 269.4080 15.08825040203208","mean_motion":15.0882504,"eccentricity":0.0001559,"inclination_deg":53.213,"raan_deg":341.4237,"arg_perigee_deg":90.7091,"mean_anomaly_deg":269.408,"bstar":0.00022164,"rev_number":20320,"period_min":95.438500941103,"perigee_km":538.71061139559,"apogee_km":540.86762075858,"semimajor_km":6917.9261160771,"source":"CELESTRAK","updated_at":"2026-05-25T13:38:17.584141Z"}}